| time (UTC) | temp F | wind direction | speed knots | gust knots | rain 1hr in | rain 24hr in | rain mn in | humidity % | barometer mb |
| 20260510081623 | 76 | 139 | 10.4 | 15.6 | 0.00 | 0.01 | 0.00 | 91 | 1012.1 |
| 20260510080054 | 76 | 140 | 10.4 | 14.8 | 0.00 | 0.01 | 0.00 | 91 | 1012.1 |
| 20260510074553 | 76 | 128 | 12.2 | 17.4 | 0.00 | 0.01 | 0.00 | 91 | 1011.9 |
| 20260510073106 | 76 | 134 | 12.2 | 16.5 | 0.00 | 0.01 | 0.00 | 91 | 1012.1 |
| 20260510071600 | 76 | 146 | 7.8 | 12.2 | 0.00 | 0.01 | 0.00 | 91 | 1012.3 |
| 20260510070058 | 76 | 126 | 9.6 | 18.2 | 0.00 | 0.01 | 0.00 | 91 | 1012.3 |
| 20260510064601 | 76 | 141 | 8.7 | 15.6 | 0.00 | 0.01 | 0.00 | 91 | 1012.5 |
| 20260510063059 | 76 | 155 | 9.6 | 14.8 | 0.00 | 0.01 | 0.00 | 91 | 1012.6 |
| 20260510061557 | 76 | 132 | 12.2 | 20.0 | 0.00 | 0.01 | 0.00 | 91 | 1012.7 |
| 20260510060058 | 76 | 121 | 12.2 | 18.2 | 0.00 | 0.01 | 0.00 | 91 | 1012.7 |
| 20260510054554 | 76 | 135 | 10.4 | 15.6 | 0.00 | 0.01 | 0.00 | 91 | 1012.8 |
| 20260510053106 | 76 | 87 | 10.4 | 17.4 | 0.00 | 0.01 | 0.00 | 91 | 1012.8 |
| 20260510051604 | 76 | 71 | 10.4 | 17.4 | 0.00 | 0.01 | 0.00 | 90 | 1012.8 |
| 20260510050111 | 76 | 96 | 10.4 | 16.5 | 0.00 | 0.01 | 0.00 | 90 | 1013.1 |
| 20260510044604 | 76 | 73 | 10.4 | 16.5 | 0.00 | 0.01 | 0.01 | 91 | 1013.2 |
| 20260510043059 | 76 | 88 | 8.7 | 14.8 | 0.00 | 0.01 | 0.01 | 91 | 1013.2 |
| 20260510041601 | 76 | 89 | 7.8 | 13.0 | 0.00 | 0.01 | 0.01 | 91 | 1013.5 |
| 20260510040053 | 77 | 94 | 7.0 | 10.4 | 0.00 | 0.01 | 0.01 | 91 | 1013.3 |
| 20260510034557 | 76 | 66 | 4.3 | 10.4 | 0.00 | 0.01 | 0.01 | 90 | 1013.4 |
| 20260510033108 | 77 | 57 | 6.1 | 11.3 | 0.00 | 0.01 | 0.01 | 90 | 1013.2 |
| 20260510031555 | 77 | 64 | 3.5 | 11.3 | 0.00 | 0.01 | 0.01 | 90 | 1013.2 |
| 20260510030111 | 77 | 90 | 6.1 | 8.7 | 0.00 | 0.01 | 0.01 | 89 | 1013.1 |
| 20260510024556 | 77 | 42 | 5.2 | 10.4 | 0.00 | 0.01 | 0.01 | 88 | 1012.8 |
| 20260510023055 | 77 | 84 | 3.5 | 9.6 | 0.00 | 0.01 | 0.01 | 89 | 1012.5 |
| 20260510021555 | 77 | 66 | 4.3 | 10.4 | 0.00 | 0.01 | 0.01 | 88 | 1012.2 |
| 20260510020054 | 77 | 104 | 3.5 | 8.7 | 0.00 | 0.01 | 0.01 | 88 | 1012.0 |
| 20260510014601 | 77 | 89 | 3.5 | 10.4 | 0.00 | 0.01 | 0.01 | 88 | 1011.7 |
| 20260510013055 | 77 | 121 | 7.0 | 10.4 | 0.00 | 0.01 | 0.01 | 89 | 1011.0 |
| 20260510011555 | 77 | 107 | 6.1 | 10.4 | 0.00 | 0.01 | 0.01 | 90 | 1010.9 |
| 20260510010054 | 77 | 121 | 7.8 | 11.3 | 0.00 | 0.01 | 0.01 | 90 | 1010.9 |
| 20260510004553 | 78 | 194 | 7.0 | 13.0 | 0.00 | 0.01 | 0.01 | 90 | 1010.5 |
| 20260510003102 | 78 | 123 | 8.7 | 13.9 | 0.00 | 0.01 | 0.01 | 89 | 1010.6 |
| 20260510001556 | 78 | 124 | 10.4 | 16.5 | 0.00 | 0.01 | 0.01 | 89 | 1010.4 |
| 20260510000057 | 79 | 146 | 10.4 | 13.9 | 0.00 | 0.01 | 0.01 | 89 | 1010.2 |
| 20260509234600 | 79 | 156 | 8.7 | 14.8 | 0.00 | 0.01 | 0.01 | 88 | 1010.4 |
| 20260509233103 | 79 | 131 | 8.7 | 13.9 | 0.00 | 0.01 | 0.01 | 87 | 1010.4 |
| 20260509231555 | 80 | 128 | 5.2 | 9.6 | 0.00 | 0.01 | 0.01 | 87 | 1010.2 |
| 20260509230059 | 80 | 117 | 4.3 | 8.7 | 0.00 | 0.01 | 0.01 | 86 | 1010.2 |
| 20260509224553 | 81 | 126 | 3.5 | 7.0 | 0.00 | 0.01 | 0.01 | 86 | 1010.1 |
| 20260509223100 | 81 | 167 | 5.2 | 9.6 | 0.00 | 0.01 | 0.01 | 87 | 1010.0 |
| 20260509221556 | 81 | 123 | 7.0 | 9.6 | 0.00 | 0.01 | 0.01 | 86 | 1009.9 |
| 20260509214556 | 81 | 107 | 4.3 | 7.8 | 0.00 | 0.02 | 0.01 | 85 | 1009.8 |
| 20260509213059 | 82 | 149 | 1.7 | 6.1 | 0.00 | 0.02 | 0.01 | 86 | 1009.9 |
| 20260509211553 | 81 | 76 | 2.6 | 7.0 | 0.00 | 0.02 | 0.01 | 87 | 1009.9 |
| 20260509210055 | 80 | 71 | 2.6 | 7.0 | 0.00 | 0.02 | 0.01 | 87 | 1009.9 |
| 20260509204556 | 80 | 71 | 5.2 | 7.0 | 0.00 | 0.02 | 0.01 | 87 | 1009.8 |
| 20260509203106 | 80 | 62 | 3.5 | 7.0 | 0.00 | 0.02 | 0.01 | 86 | 1009.9 |
| 20260509201601 | 81 | 131 | 3.5 | 7.8 | 0.00 | 0.02 | 0.01 | 86 | 1010.0 |
| 20260509200108 | 81 | 121 | 6.1 | 7.8 | 0.00 | 0.02 | 0.01 | 85 | 1010.1 |
| 20260509194554 | 82 | 121 | 2.6 | 3.5 | 0.00 | 0.02 | 0.01 | 82 | 1010.6 |
| 20260509193114 | 81 | 111 | 1.7 | 5.2 | 0.00 | 0.02 | 0.01 | 82 | 1010.8 |
| 20260509191553 | 82 | 350 | 1.7 | 5.2 | 0.00 | 0.02 | 0.01 | 79 | 1010.9 |
| 20260509190059 | 81 | 331 | 4.3 | 8.7 | 0.00 | 0.02 | 0.01 | 80 | 1010.9 |
| 20260509184607 | 81 | 18 | 3.5 | 7.8 | 0.00 | 0.02 | 0.01 | 78 | 1010.9 |
| 20260509183057 | 81 | 335 | 2.6 | 5.2 | 0.00 | 0.02 | 0.01 | 78 | 1011.0 |
| 20260509181603 | 79 | 301 | 3.5 | 7.0 | 0.00 | 0.02 | 0.01 | 84 | 1011.1 |
| 20260509180055 | 79 | 90 | 0.0 | 4.3 | 0.00 | 0.02 | 0.01 | 88 | 1011.1 |
| 20260509174602 | 78 | 95 | 3.5 | 6.1 | 0.00 | 0.02 | 0.01 | 89 | 1011.5 |
| 20260509173106 | 78 | 97 | 1.7 | 2.6 | 0.00 | 0.02 | 0.01 | 90 | 1012.0 |
| 20260509171615 | 78 | 238 | 1.7 | 4.3 | 0.00 | 0.02 | 0.01 | 91 | 1011.9 |
| 20260509170057 | 78 | 0 | 0.0 | 2.6 | 0.00 | 0.02 | 0.01 | 92 | 1011.7 |
| 20260509164553 | 77 | 304 | 0.0 | 2.6 | 0.00 | 0.02 | 0.01 | 92 | 1011.7 |
| 20260509163107 | 77 | 0 | 0.0 | 2.6 | 0.00 | 0.02 | 0.01 | 92 | 1012.0 |
| 20260509161554 | 77 | 194 | 2.6 | 4.3 | 0.00 | 0.02 | 0.01 | 92 | 1011.9 |
| 20260509160054 | 77 | 146 | 0.0 | 2.6 | 0.00 | 0.02 | 0.01 | 93 | 1012.0 |
| 20260509154554 | 76 | 197 | 1.7 | 3.5 | 0.00 | 0.02 | 0.01 | 94 | 1012.1 |
| 20260509153052 | 76 | 0 | 0.9 | 8.7 | 0.00 | 0.02 | 0.01 | 94 | 1011.8 |
| 20260509151603 | 76 | 88 | 1.7 | 3.5 | 0.00 | 0.02 | 0.01 | 94 | 1011.6 |
| 20260509150104 | 76 | 117 | 0.9 | 2.6 | 0.00 | 0.02 | 0.01 | 94 | 1011.6 |
| 20260509144659 | 76 | 158 | 0.0 | 1.7 | 0.00 | 0.02 | 0.01 | 94 | 1012.1 |
| 20260509143054 | 76 | 211 | 0.0 | 3.5 | 0.00 | 0.02 | 0.01 | 94 | 1012.3 |
| 20260509141552 | 76 | 189 | 0.9 | 1.7 | 0.00 | 0.02 | 0.01 | 94 | 1011.8 |
| 20260509140059 | 76 | 130 | 2.6 | 3.5 | 0.00 | 0.02 | 0.01 | 93 | 1011.6 |
| 20260509134553 | 76 | 150 | 3.5 | 6.1 | 0.00 | 0.02 | 0.01 | 94 | 1011.9 |
| 20260509133054 | 76 | 213 | 0.9 | 2.6 | 0.00 | 0.02 | 0.01 | 94 | 1011.7 |
| 20260509131553 | 76 | 335 | 1.7 | 2.6 | 0.00 | 0.02 | 0.01 | 94 | 1011.8 |
| 20260509130105 | 76 | 0 | 0.0 | 0.0 | 0.00 | 0.02 | 0.01 | 94 | 1011.4 |
| 20260509124610 | 75 | 0 | 0.0 | 0.9 | 0.00 | 0.02 | 0.01 | 94 | 1011.4 |
| 20260509123102 | 75 | 59 | 0.0 | 2.6 | 0.00 | 0.02 | 0.01 | 94 | 1011.7 |
| 20260509121559 | 74 | 38 | 0.0 | 6.1 | 0.00 | 0.02 | 0.01 | 94 | 1011.7 |
| 20260509120106 | 74 | 351 | 0.9 | 1.7 | 0.00 | 0.02 | 0.01 | 94 | 1011.9 |
| 20260509114603 | 74 | 313 | 0.0 | 1.7 | 0.01 | 0.02 | 0.01 | 94 | 1011.3 |
| 20260509113056 | 75 | 328 | 0.9 | 1.7 | 0.01 | 0.02 | 0.01 | 94 | 1011.3 |
| 20260509111553 | 75 | 0 | 0.0 | 0.0 | 0.01 | 0.02 | 0.01 | 94 | 1011.0 |
| 20260509110053 | 75 | 0 | 0.0 | 1.7 | 0.01 | 0.02 | 0.01 | 94 | 1010.9 |
| 20260509104553 | 75 | 0 | 0.0 | 0.0 | 0.00 | 0.01 | 0.00 | 94 | 1010.8 |
| 20260509103054 | 75 | 0 | 0.0 | 1.7 | 0.00 | 0.01 | 0.00 | 94 | 1010.8 |
| 20260509101557 | 75 | 111 | 0.9 | 2.6 | 0.00 | 0.01 | 0.00 | 94 | 1010.7 |
| 20260509100058 | 75 | 109 | 1.7 | 5.2 | 0.00 | 0.01 | 0.00 | 94 | 1010.6 |
| 20260509094554 | 75 | 120 | 3.5 | 6.1 | 0.00 | 0.01 | 0.00 | 94 | 1010.4 |
| 20260509093055 | 75 | 109 | 5.2 | 7.8 | 0.00 | 0.01 | 0.00 | 94 | 1010.4 |
| 20260509091552 | 75 | 107 | 3.5 | 6.1 | 0.00 | 0.01 | 0.00 | 94 | 1010.1 |
| 20260509090104 | 75 | 122 | 1.7 | 5.2 | 0.00 | 0.01 | 0.00 | 94 | 1010.3 |
| 20260509084601 | 75 | 143 | 3.5 | 7.0 | 0.00 | 0.01 | 0.00 | 94 | 1010.3 |
| 20260509083055 | 75 | 120 | 2.6 | 5.2 | 0.00 | 0.01 | 0.00 | 94 | 1010.8 |